Regional Weather Roundup
Issued by NWS

Home | Current Version | Previous Version | Graphics & Text | Print | Product List | Glossary On
Versions: 1 2 3 4 5 6 7 8 9 10 11 12 13 14 15 16 17 18 19 20 21 22 23 24 25 26 27 28 29 30 31 32 33 34 35 36 37 38 39 40 41 42 43 44 45 46 47 48 49 50
000
ASUS43 KIND 230509
RWRIN

WEATHER ROUNDUP FOR INDIANA
NATIONAL WEATHER SERVICE INDIANAPOLIS IN
100 AM EDT WED JUL 23 2014

NOTE: "FAIR" INDICATES FEW OR NO CLOUDS BELOW 12,000 FEET WITH NO
SIGNIFICANT WEATHER AND/OR OBSTRUCTIONS TO VISIBILITY.

* - STATION DOES NOT REPORT WEATHER SUCH AS PRECIPITATION OR FOG.

+ - STATION NOT QUALITY CONTROLLED BY THE NATIONAL WEATHER SERVICE.
    USE DATA WITH CAUTION...ESPECIALLY DEWPOINT AND RELATIVE
    HUMIDITY OBSERVATIONS.

INZ001>003-010>013-019-020-230600-
NORTHWEST INDIANA

CITY           SKY/WX    TMP DP  RH WIND       PRES   REMARKS
GARY /AIRPORT/ PTCLDY    81  75  81 S3        29.96S
KNOX *+        CLOUDY    77  69  75 SW6       29.99R
LA PORTE +     CLEAR     74  70  86 SW7       29.99S
MICHIGAN CITY+ PTCLDY    77  70  78 SW5       29.98S
MONTICELLO +   CLEAR     73  70  91 SW6       30.00R
RENSSELAER +   MOCLDY    73  72  94 SW3       30.00R
VALPARAISO     PTCLDY    76  71  85 SW8       29.99R

$$

LMZ046-743>745-230600-
SOUTHERN LAKE MICHIGAN

STATION/POSITION TIME  TEMP WIND        PRES
                       AIR  DIR/SP/G
                 (UTC) (F)  (DEG/KT/KT) (MB)
BURNS HARBOR     0500   80  210/ 10/ 14 1014.9S
MICHIGAN CITY    0500   79  170/ 10/ 12   N/A

$$

INZ004-005-014>016-021>024-230600-
NORTH CENTRAL INDIANA

CITY           SKY/WX    TMP DP  RH WIND       PRES   REMARKS
GOSHEN         PTCLDY    77  69  76 S5        29.99S
LOGANSPORT +   PTCLDY    72  68  88 SW6       30.02R
PERU/GRISSOM   CLEAR     73  73 100 SW7       30.02R
ROCHESTER +    MOCLDY    79  70  73 SW6       30.02R
SOUTH BEND     PTCLDY    78  70  76 SW9       29.98F
WARSAW +       MOCLDY    77  70  78 SW7       30.00S

$$

INZ006>009-017-018-025>027-230600-
NORTHEAST INDIANA

CITY           SKY/WX    TMP DP  RH WIND       PRES   REMARKS
ANGOLA *+      CLOUDY    79  70  73 W5        30.00R
AUBURN +       CLEAR     77  66  69 W5        30.01S
FORT WAYNE     MOCLDY    77  69  76 SW9       30.02R
HUNTINGTON +   MOCLDY    76  69  81 SW3       30.01R

$$

INZ028-029-035-036-043>045-051>053-230600-
WEST CENTRAL INDIANA

CITY           SKY/WX    TMP DP  RH WIND       PRES   REMARKS
GREENCASTLE +  CLEAR     72  68  88 CALM      30.04S
LAFAYETTE      PTCLDY    73  70  90 W3        30.00S
TERRE HAUTE    CLEAR     72  69  90 SW3       30.03S

$$

INZ030>032-037>040-046>048-054>057-064-065-230600-
CENTRAL INDIANA

CITY           SKY/WX    TMP DP  RH WIND       PRES   REMARKS
CP ATTERBURY +   N/A     68  66  94 CALM      30.04S FOG
GREENWOOD *+   PTCLDY    75  72  88 CALM      30.05
INDIANAPOLIS   PTCLDY    73  68  84 SW5       30.03R
-EAGLE CREEK   CLEAR     75  68  78 SW3       30.03R
KOKOMO *+      CLEAR     75  70  83 SW8       30.02R
MARION +       CLEAR     71  67  87 SW3       30.03R FOG
MT COMFORT *+  CLEAR     73  73 100 S5        30.04S
SHELBYVILLE    CLEAR     74  68  81 S3        30.03R
ZIONSVILLE +   CLEAR     74  67  79 SW5       30.04S

$$

INZ033-034-041-042-049-050-058-059-230600-
EAST CENTRAL INDIANA

CITY           SKY/WX    TMP DP  RH WIND       PRES   REMARKS
MUNCIE         PTCLDY    76  66  71 SW5       30.03R

$$

INZ060-061-067>069-081>083-085>088-230600-
SOUTHWEST INDIANA

CITY           SKY/WX    TMP DP  RH WIND       PRES   REMARKS
EVANSVILLE     CLEAR     77  70  79 CALM      30.04F
HUNTINGBURG *+ CLEAR     72  66  83 CALM      30.04F
WASHINGTON +   CLEAR     70  69  95 CALM      30.03R

$$

INZ062-063-066-070>080-084-089>092-230600-
SOUTH CENTRAL AND SOUTHEAST INDIANA

CITY           SKY/WX    TMP DP  RH WIND       PRES   REMARKS
BEDFORD +      MOCLDY    73  68  83 CALM      30.04
BLOOMINGTON    CLEAR     71  68  90 CALM      30.04S
NORTH VERNON + CLEAR     72  72 100 CALM      30.04
SEYMOUR +      PTCLDY    66  59  77 SW5       30.03S

$$



USA.gov is the U.S. government's official web portal to all federal, state and local government web resources and services.